W0KHZ Weather Reports


Display with metric or nautical units.
time (UTC)temp
F
wind
direction
speed
MPH
gust
MPH
rain 1hr
in
rain 24hr
in
rain mn
in
humidity
%
barometer
mb
20260902165019 79 155 0.0 3.0 0.00 0.26 0.18 81 1041.9
20260902164516 79 0.0 0.0 0.00 0.26 0.18 82 1041.7
20260902164031 78 0.0 0.0 0.00 0.26 0.18 81 1041.7
20260902163529 78 0.0 0.0 0.00 0.26 0.18 82 1041.8
20260902163046 77 0.0 0.0 0.00 0.26 0.18 82 1042.0
20260902162524 77 0.0 0.0 0.00 0.26 0.18 83 1042.1
20260902162021 77 0.0 0.0 0.00 0.26 0.18 84 1042.0
20260902161517 77 0.0 0.0 0.00 0.26 0.18 85 1041.9
20260902161035 76 0.0 0.0 0.00 0.26 0.18 85 1041.8
20260902160550 76 0.0 0.0 0.00 0.26 0.18 87 1042.0
20260902160027 75 0.0 0.0 0.00 0.26 0.18 87 1042.1
20260902155524 75 172 1.0 3.0 0.00 0.26 0.18 88 1041.9
20260902155021 74 0.0 0.0 0.00 0.26 0.18 88 1042.0
20260902154538 74 0.0 0.0 0.00 0.26 0.18 89 1042.1
20260902154055 73 0.0 0.0 0.00 0.26 0.18 89 1041.8
20260902153531 73 0.0 0.0 0.00 0.26 0.18 89 1041.8
20260902153048 73 0.0 0.0 0.00 0.26 0.18 89 1042.1
20260902152526 73 0.0 0.0 0.00 0.26 0.18 90 1041.9
20260902152022 72 0.0 0.0 0.00 0.26 0.18 90 1041.8
20260902151519 72 0.0 0.0 0.00 0.26 0.18 90 1042.0
20260902151017 72 0.0 0.0 0.00 0.26 0.18 91 1042.0
20260902150534 72 0.0 0.0 0.00 0.26 0.18 91 1042.0
20260902150031 72 0.0 0.0 0.00 0.26 0.18 91 1041.9
20260902145528 72 175 0.0 1.0 0.00 0.26 0.18 91 1042.2
20260902145025 71 210 0.0 2.0 0.00 0.26 0.18 91 1042.1
20260902144522 71 0.0 0.0 0.00 0.26 0.18 91 1042.0
20260902144019 71 162 0.0 1.0 0.00 0.26 0.18 92 1042.0
20260902143537 71 162 0.0 2.0 0.00 0.26 0.18 92 1042.1
20260902143033 70 0.0 0.0 0.00 0.26 0.18 92 1042.0
20260902142530 70 0.0 0.0 0.00 0.26 0.18 92 1042.0
20260902142026 70 0.0 0.0 0.00 0.26 0.18 92 1041.9
20260902141544 70 0.0 0.0 0.00 0.26 0.18 92 1042.0
20260902141021 69 0.0 0.0 0.00 0.26 0.18 92 1042.1
20260902140519 69 0.0 0.0 0.00 0.26 0.18 92 1042.1
20260902140016 68 0.0 0.0 0.00 0.26 0.18 92 1042.2
20260902135551 68 0.0 0.0 0.00 0.26 0.18 92 1042.3
20260902135028 68 0.0 0.0 0.00 0.26 0.18 92 1042.3
20260902134525 68 0.0 0.0 0.00 0.26 0.18 92 1042.4
20260902134042 68 0.0 0.0 0.00 0.26 0.18 92 1042.8
20260902133519 67 0.0 0.0 0.00 0.26 0.18 92 1042.8
20260902133016 67 0.0 0.0 0.00 0.26 0.18 92 1042.7
20260902132531 67 0.0 0.0 0.00 0.26 0.18 92 1042.7
20260902132028 66 0.0 0.0 0.00 0.26 0.18 92 1042.9
20260902131525 66 0.0 0.0 0.00 0.26 0.18 92 1043.3
20260902131022 66 0.0 0.0 0.00 0.26 0.18 92 1043.0
20260902130519 66 0.0 0.0 0.00 0.26 0.18 92 1043.0
20260902130037 66 0.0 0.0 0.00 0.26 0.18 92 1042.9
20260902125533 66 0.0 0.0 0.00 0.26 0.18 92 1043.0
20260902125030 66 0.0 0.0 0.00 0.26 0.18 92 1043.1
20260902124527 66 0.0 0.0 0.00 0.26 0.18 92 1042.9
20260902124024 66 0.0 0.0 0.00 0.26 0.18 92 1042.7
20260902123521 65 0.0 0.0 0.00 0.26 0.18 92 1042.5
20260902123018 65 0.0 0.0 0.01 0.26 0.18 92 1042.4
20260902122536 65 0.0 0.0 0.02 0.26 0.18 92 1042.4
20260902122032 65 0.0 0.0 0.02 0.26 0.18 92 1042.4
20260902121529 65 0.0 0.0 0.02 0.26 0.18 92 1042.8
20260902121026 65 0.0 0.0 0.03 0.26 0.18 91 1042.6
20260902120524 66 152 0.0 1.0 0.04 0.26 0.18 91 1042.4
20260902120041 66 168 0.0 2.0 0.04 0.26 0.18 91 1041.5
20260902115517 66 0.0 0.0 0.04 0.26 0.18 91 1041.7
20260902115034 66 243 0.0 2.0 0.04 0.26 0.18 91 1041.5
20260902114550 66 263 0.0 3.0 0.04 0.26 0.18 91 1041.1
20260902114028 66 0.0 0.0 0.04 0.25 0.18 91 1041.1
20260902113525 66 0.0 0.0 0.04 0.25 0.18 91 1041.8
20260902113022 66 0.0 0.0 0.04 0.25 0.17 91 1042.1
20260902112519 66 178 0.0 2.0 0.04 0.24 0.17 91 1042.6
20260902112015 66 0.0 0.0 0.03 0.24 0.16 92 1043.0
20260902111531 66 0.0 0.0 0.05 0.23 0.16 92 1043.3
20260902111028 66 0.0 0.0 0.04 0.22 0.15 91 1043.4
20260902110525 66 0.0 0.0 0.03 0.22 0.14 92 1043.5
20260902110042 66 0.0 0.0 0.04 0.22 0.14 91 1043.8
20260902105519 67 0.0 0.0 0.05 0.22 0.14 91 1043.7
20260902105017 67 0.0 0.0 0.05 0.22 0.14 91 1043.4
20260902104612 67 0.0 0.0 0.05 0.22 0.14 91 1043.5
20260902104029 67 0.0 0.0 0.05 0.22 0.14 91 1043.5
20260902103526 67 0.0 0.0 0.04 0.21 0.13 91 1043.4
20260902103023 67 0.0 0.0 0.04 0.21 0.13 91 1043.6
20260902102520 67 0.0 0.0 0.04 0.21 0.13 91 1042.9
20260902102017 67 0.0 0.0 0.04 0.21 0.13 91 1042.0
20260902101535 67 133 0.0 1.0 0.02 0.19 0.11 91 1041.9
20260902101032 67 149 3.0 7.0 0.02 0.19 0.11 91 1041.4
20260902100529 67 164 0.0 4.0 0.02 0.19 0.11 91 1041.4
20260902100026 67 0.0 0.0 0.01 0.18 0.10 91 1041.8
20260902095523 67 0.0 0.0 0.00 0.17 0.09 91 1041.9
20260902095020 67 0.0 0.0 0.00 0.17 0.09 91 1042.3
20260902094517 67 0.0 0.0 0.00 0.17 0.09 91 1041.9
20260902094034 67 0.0 0.0 0.00 0.17 0.09 91 1042.0
20260902093529 67 0.0 0.0 0.00 0.17 0.09 91 1041.8
20260902093027 67 0.0 0.0 0.00 0.17 0.09 91 1042.0
20260902092524 67 0.0 0.0 0.00 0.17 0.09 91 1042.3
20260902092021 67 0.0 0.0 0.00 0.17 0.09 91 1042.4
20260902091518 67 0.0 0.0 0.00 0.17 0.09 91 1042.0
20260902091015 68 0.0 0.0 0.00 0.17 0.09 91 1042.0
20260902090532 68 0.0 0.0 0.00 0.17 0.09 91 1042.1
20260902090029 68 274 0.0 1.0 0.00 0.17 0.09 91 1042.4
20260902085526 68 0.0 0.0 0.00 0.17 0.09 91 1042.4
20260902085023 68 0.0 0.0 0.00 0.17 0.09 91 1042.7
20260902084520 68 0.0 0.0 0.00 0.17 0.09 91 1042.8
20260902084017 68 0.0 0.0 0.01 0.17 0.09 90 1042.8
20260902083535 68 0.0 0.0 0.02 0.17 0.09 90 1042.7
20260902083031 68 0.0 0.0 0.09 0.17 0.09 90 1042.7
20260902082548 68 0.0 0.0 0.09 0.17 0.09 90 1042.7
20260902082045 68 274 0.0 1.0 0.09 0.17 0.09 90 1042.9
20260902081523 68 274 0.0 1.0 0.09 0.17 0.09 90 1043.1
20260902081039 68 276 0.0 4.0 0.09 0.17 0.09 90 1043.2
20260902080537 68 0.0 0.0 0.09 0.17 0.09 90 1043.4
20260902080034 68 318 0.0 1.0 0.09 0.17 0.09 90 1043.6
20260902075530 68 318 0.0 1.0 0.09 0.17 0.09 90 1043.8
20260902075027 68 304 0.0 2.0 0.09 0.17 0.09 90 1043.9
20260902074525 68 338 2.0 11.0 0.09 0.17 0.09 91 1043.8
20260902074022 68 333 1.0 6.0 0.08 0.16 0.08 91 1044.3
20260902073518 68 346 2.0 8.0 0.07 0.15 0.07 91 1044.6
20260902073016 68 347 3.0 8.0 0.00 0.08 0.00 91 1044.3
20260902072612 68 329 0.0 6.0 0.00 0.08 0.00 91 1041.3
20260902072028 68 0.0 0.0 0.00 0.08 0.00 91 1040.8
20260902071526 68 0.0 0.0 0.00 0.08 0.00 91 1040.9
20260902071023 68 0.0 0.0 0.00 0.08 0.00 91 1040.7
20260902070541 68 0.0 0.0 0.00 0.08 0.00 91 1040.8
20260902070058 68 0.0 0.0 0.00 0.08 0.00 91 1040.6
20260902065534 68 0.0 0.0 0.00 0.08 0.00 91 1040.6
20260902065030 68 0.0 0.0 0.00 0.08 0.00 91 1040.6
20260902064527 68 0.0 0.0 0.00 0.08 0.00 90 1040.9
20260902064024 68 0.0 0.0 0.00 0.08 0.00 90 1040.9
20260902063521 68 0.0 0.0 0.00 0.08 0.00 90 1040.8
20260902063019 68 0.0 0.0 0.00 0.08 0.00 90 1040.9
20260902062515 68 0.0 0.0 0.00 0.08 0.00 90 1040.8
20260902062031 68 0.0 0.0 0.00 0.08 0.00 90 1040.9
20260902061527 68 0.0 0.0 0.00 0.08 0.00 90 1040.8
20260902061025 68 0.0 0.0 0.00 0.08 0.00 90 1040.8
20260902060522 68 0.0 0.0 0.00 0.08 0.00 90 1040.5
20260902060059 68 0.0 0.0 0.00 0.08 0.00 90 1040.5
20260902055516 68 0.0 0.0 0.00 0.08 0.00 90 1040.8
20260902055032 69 0.0 0.0 0.00 0.08 0.00 90 1041.0
20260902054549 69 143 0.0 1.0 0.00 0.08 0.00 90 1041.2
20260902054147 69 139 0.0 2.0 0.00 0.08 0.00 90 1041.3
20260902053524 69 0.0 0.0 0.00 0.08 0.00 90 1041.6
20260902053021 69 0.0 0.0 0.00 0.08 0.00 90 1041.6
20260902052517 69 0.0 0.0 0.00 0.08 0.00 90 1042.1
20260902052034 69 0.0 0.0 0.00 0.08 0.00 90 1041.6
20260902051531 69 0.0 0.0 0.00 0.08 0.00 90 1041.3
20260902051027 70 0.0 0.0 0.00 0.08 0.00 90 1041.4
20260902050524 70 0.0 0.0 0.00 0.08 0.00 90 1041.4
20260902050041 70 0.0 0.0 0.00 0.08 0.08 91 1041.5
20260902045538 70 0.0 0.0 0.00 0.08 0.08 91 1041.5
20260902045015 71 0.0 0.0 0.00 0.08 0.08 91 1041.5
20260902044531 71 0.0 0.0 0.00 0.08 0.08 91 1041.7
20260902044029 71 0.0 0.0 0.01 0.08 0.08 91 1042.1
20260902043526 71 0.0 0.0 0.01 0.08 0.08 91 1042.1
20260902043023 71 0.0 0.0 0.01 0.08 0.08 91 1042.2
20260902042520 71 0.0 0.0 0.01 0.08 0.08 91 1041.7
20260902042018 71 0.0 0.0 0.01 0.08 0.08 91 1041.4
20260902041535 71 0.0 0.0 0.01 0.08 0.08 91 1041.2
20260902041030 71 0.0 0.0 0.01 0.08 0.08 91 1041.5
20260902040527 71 0.0 0.0 0.01 0.08 0.08 91 1042.0
20260902040024 71 0.0 0.0 0.01 0.08 0.08 91 1041.7
20260902035522 71 0.0 0.0 0.01 0.08 0.08 91 1041.8
20260902035019 70 0.0 0.0 0.01 0.08 0.08 91 1041.7
20260902034516 70 0.0 0.0 0.00 0.07 0.07 91 1041.4
20260902034032 70 0.0 0.0 0.00 0.07 0.07 91 1041.2
20260902033528 70 0.0 0.0 0.00 0.07 0.07 90 1041.4
20260902033026 70 0.0 0.0 0.00 0.07 0.07 90 1041.5
20260902032523 70 0.0 0.0 0.00 0.07 0.07 90 1041.5
20260902032020 70 0.0 0.0 0.00 0.07 0.07 90 1041.5
20260902031518 70 0.0 0.0 0.00 0.07 0.07 90 1041.6
20260902031035 70 0.0 0.0 0.00 0.07 0.07 90 1041.5
20260902030530 71 0.0 0.0 0.00 0.07 0.07 90 1041.6
20260902030028 71 0.0 0.0 0.00 0.07 0.07 90 1041.8
20260902025525 71 0.0 0.0 0.00 0.07 0.07 90 1041.8
20260902025023 71 0.0 0.0 0.00 0.07 0.07 90 1041.7
20260902024520 71 0.0 0.0 0.00 0.07 0.07 90 1041.7
20260902024017 71 0.0 0.0 0.00 0.07 0.07 90 1041.8
20260902023534 71 0.0 0.0 0.00 0.07 0.07 90 1041.8
20260902023051 71 0.0 0.0 0.00 0.07 0.07 90 1041.8
20260902022527 71 0.0 0.0 0.00 0.07 0.07 90 1041.9
20260902022044 71 0.0 0.0 0.00 0.07 0.07 90 1041.9
20260902021542 71 0.0 0.0 0.00 0.07 0.07 90 1041.9
20260902021019 71 0.0 0.0 0.00 0.07 0.07 90 1041.9
20260902020516 71 0.0 0.0 0.02 0.07 0.07 90 1041.7
20260902020033 71 0.0 0.0 0.02 0.07 0.07 90 1041.8
20260902015529 72 0.0 0.0 0.02 0.07 0.07 90 1041.7
20260902015027 72 0.0 0.0 0.02 0.07 0.07 90 1041.7
20260902014524 72 0.0 0.0 0.02 0.07 0.07 90 1041.8
20260902014041 72 0.0 0.0 0.02 0.07 0.07 90 1041.8
20260902013518 72 0.0 0.0 0.02 0.07 0.07 89 1041.7
20260902013015 72 0.0 0.0 0.02 0.07 0.07 89 1041.6
20260902012532 72 0.0 0.0 0.02 0.07 0.07 89 1041.6
20260902012028 72 0.0 0.0 0.02 0.07 0.07 89 1041.5
20260902011526 72 0.0 0.0 0.02 0.07 0.07 89 1041.4
20260902011023 72 0.0 0.0 0.02 0.07 0.07 89 1041.4
20260902010520 72 0.0 0.0 0.01 0.06 0.06 89 1041.4
20260902010017 72 0.0 0.0 0.01 0.06 0.06 88 1041.4
20260902005554 72 0.0 0.0 0.01 0.06 0.06 88 1041.4
20260902005031 72 0.0 0.0 0.01 0.06 0.06 88 1041.2
20260902004528 72 0.0 0.0 0.01 0.06 0.06 88 1041.2
20260902004025 73 0.0 0.0 0.01 0.06 0.06 88 1041.3
20260902003523 73 0.0 0.0 0.01 0.06 0.06 87 1041.2
20260902003020 73 293 0.0 1.0 0.02 0.06 0.06 87 1041.1
20260902002517 73 0.0 0.0 0.01 0.05 0.05 87 1041.0
20260902002055 73 0.0 0.0 0.01 0.05 0.05 87 1041.0
20260902001551 73 273 0.0 1.0 0.01 0.05 0.05 86 1041.1
20260902001028 73 0.0 0.0 0.04 0.05 0.05 86 1041.0
20260902000545 74 58 0.0 2.0 0.04 0.05 0.05 85 1040.9
20260902000022 74 0.0 0.0 0.04 0.05 0.05 85 1040.8
20260901235539 74 0.0 0.0 0.04 0.05 0.05 84 1041.1
20260901235016 74 0.0 0.0 0.04 0.04 0.04 85 1041.3
20260901234531 75 0.0 0.0 0.04 0.04 0.04 84 1040.9
20260901234028 75 0.0 0.0 0.04 0.04 0.04 84 1041.0
20260901233545 76 323 0.0 1.0 0.04 0.04 0.04 83 1040.6
20260901233023 76 0.0 0.0 0.04 0.04 0.04 81 1040.5
20260901232520 77 0.0 0.0 0.04 0.04 0.04 80 1040.5
20260901232017 78 0.0 0.0 0.04 0.04 0.04 79 1040.8
20260901231535 78 285 0.0 1.0 0.03 0.04 0.04 78 1041.1
20260901231030 79 0.0 0.0 0.00 0.00 0.00 77 1041.8
20260901230527 79 0.0 0.0 0.00 0.00 0.00 76 1041.9
20260901230024 79 0.0 0.0 0.00 0.00 0.00 75 1042.0
20260901225521 79 0.0 0.0 0.00 0.00 0.00 75 1042.1
20260901225019 79 0.0 0.0 0.00 0.00 0.00 76 1042.3
20260901224516 80 0.0 0.0 0.00 0.00 0.00 76 1042.3
20260901224133 80 0.0 0.0 0.00 0.00 0.00 75 1042.0
20260901223529 81 0.0 0.0 0.00 0.00 0.00 74 1041.8
20260901223027 81 0.0 0.0 0.00 0.00 0.00 74 1041.3
20260901222523 81 0.0 0.0 0.00 0.00 0.00 73 1040.9
20260901222041 82 0.0 0.0 0.00 0.00 0.00 71 1041.0
20260901221518 83 0.0 0.0 0.00 0.00 0.00 69 1040.5
20260901221035 83 0.0 0.0 0.00 0.00 0.00 69 1040.6
20260901220532 83 0.0 0.0 0.00 0.00 0.00 70 1041.3
20260901220028 84 0.0 0.0 0.00 0.00 0.00 69 1041.6
20260901215526 84 0.0 0.0 0.00 0.00 0.00 69 1041.5
20260901215022 85 0.0 0.0 0.00 0.00 0.00 69 1041.2
20260901214520 85 0.0 0.0 0.00 0.00 0.00 66 1040.9
20260901214017 86 0.0 0.0 0.00 0.00 0.00 65 1040.7
20260901213533 87 0.0 0.0 0.00 0.00 0.00 63 1040.7
20260901213030 87 0.0 0.0 0.00 0.00 0.00 63 1041.0
20260901212526 88 0.0 0.0 0.00 0.00 0.00 63 1040.9
20260901212024 89 0.0 0.0 0.00 0.00 0.00 60 1041.0
20260901211521 89 0.0 0.0 0.00 0.00 0.00 58 1041.2
20260901211019 89 0.0 0.0 0.00 0.00 0.00 59 1041.2
20260901210516 89 0.0 0.0 0.00 0.00 0.00 59 1041.3
20260901210033 89 0.0 0.0 0.00 0.00 0.00 60 1041.3
20260901205550 88 0.0 0.0 0.00 0.00 0.00 60 1041.6
20260901205026 88 0.0 0.0 0.00 0.00 0.00 61 1041.5
20260901204523 88 0.0 0.0 0.00 0.00 0.00 64 1041.7
20260901204021 87 0.0 0.0 0.00 0.00 0.00 65 1041.7
20260901203518 87 0.0 0.0 0.00 0.00 0.00 67 1041.5
20260901203035 86 0.0 0.0 0.00 0.00 0.00 68 1041.4
20260901202531 85 0.0 0.0 0.00 0.00 0.00 70 1041.4
20260901202029 85 0.0 0.0 0.00 0.00 0.00 69 1041.6
20260901201525 85 0.0 0.0 0.00 0.00 0.00 68 1041.5
20260901201103 85 0.0 0.0 0.00 0.00 0.00 67 1041.5
20260901200520 85 0.0 0.0 0.00 0.00 0.00 67 1041.6
20260901200017 85 0.0 0.0 0.00 0.00 0.00 67 1041.9
20260901195534 86 0.0 0.0 0.00 0.00 0.00 67 1041.9
20260901195049 86 0.0 0.0 0.00 0.00 0.00 67 1042.1
20260901194526 87 0.0 0.0 0.00 0.00 0.00 67 1042.1
20260901194024 87 0.0 0.0 0.00 0.00 0.00 67 1042.2
20260901193520 88 13 0.0 1.0 0.00 0.00 0.00 67 1042.2
20260901193017 88 0.0 0.0 0.00 0.00 0.00 66 1042.3
20260901192535 88 0.0 0.0 0.00 0.00 0.00 65 1042.3
20260901192030 88 0.0 0.0 0.00 0.00 0.00 65 1042.2
20260901191528 88 0.0 0.0 0.00 0.00 0.00 64 1042.3
20260901191045 89 0.0 0.0 0.00 0.00 0.00 65 1042.2
20260901190543 88 0.0 0.0 0.00 0.00 0.00 65 1042.2
20260901190020 88 0.0 0.0 0.00 0.00 0.00 65 1042.3
20260901185517 88 0.0 0.0 0.00 0.00 0.00 65 1042.3
20260901185034 88 0.0 0.0 0.00 0.00 0.00 65 1042.3
20260901184530 88 0.0 0.0 0.00 0.00 0.00 67 1042.3
20260901184027 87 0.0 0.0 0.00 0.00 0.00 65 1042.4
20260901183524 88 232 0.0 1.0 0.00 0.00 0.00 65 1042.3
20260901183021 88 0.0 0.0 0.00 0.00 0.00 64 1042.2
20260901182517 88 0.0 0.0 0.00 0.00 0.00 64 1042.2
20260901182035 89 0.0 0.0 0.00 0.00 0.00 63 1042.4
20260901181531 89 0.0 0.0 0.00 0.00 0.00 64 1042.2
20260901181028 89 0.0 0.0 0.00 0.00 0.00 64 1042.3
20260901180526 89 199 0.0 2.0 0.00 0.00 0.00 66 1042.2
20260901180022 89 129 0.0 2.0 0.00 0.00 0.00 67 1042.3
20260901175520 88 114 0.0 2.0 0.00 0.00 0.00 66 1042.3
20260901175018 88 0.0 0.0 0.00 0.00 0.00 67 1042.4
20260901174535 88 274 0.0 1.0 0.00 0.00 0.00 67 1042.4
20260901174030 88 187 0.0 1.0 0.00 0.00 0.00 67 1042.5
20260901173547 87 265 0.0 2.0 0.00 0.00 0.00 67 1042.5
20260901173024 87 0.0 0.0 0.00 0.00 0.00 69 1042.4
20260901172522 87 135 0.0 1.0 0.00 0.00 0.00 69 1042.5
20260901172019 87 135 0.0 1.0 0.00 0.00 0.00 70 1042.6
20260901171517 86 135 0.0 2.0 0.00 0.00 0.00 73 1042.6
20260901171034 86 135 0.0 1.0 0.00 0.00 0.00 74 1042.7
20260901170529 86 135 0.0 1.0 0.00 0.00 0.00 77 1042.8
20260901170026 85 145 0.0 2.0 0.00 0.00 0.00 78 1042.8
20260901165543 85 170 0.0 1.0 0.00 0.00 0.00 79 1042.7